SJX417 RCKH-RCTP

Flight info

Callsign SJX417
Flight time 0h 34m
Altitude 22000
Route TNN1F TNN TNN1A
Aircraft A35K/H-SDE2E3GHIJ3J4J5LM1ORWXY/LB1D1

Departure

Time 2026-04-16 14:38
Airport Kaohsiung International Airport (RCKH)

Arrival

Time 2026-04-16 15:12
Airport Taiwan Taoyuan International Airport (RCTP)
Time Latitude Longitude Altitude Speed Heading
2026-04-16 14:13 22.57266 120.34238 44 ft 0 kts 271°
2026-04-16 14:26 22.57266 120.34239 44 ft 2 kts 271°
2026-04-16 14:26 22.57266 120.34257 44 ft 2 kts 270°
2026-04-16 14:27 22.57266 120.34275 44 ft 2 kts 271°
2026-04-16 14:27 22.57266 120.34293 44 ft 2 kts 271°
2026-04-16 14:27 22.57266 120.34311 43 ft 2 kts 276°
2026-04-16 14:27 22.57258 120.34325 39 ft 2 kts 359°
2026-04-16 14:28 22.57246 120.34325 40 ft 1 kts
2026-04-16 14:28 22.57245 120.34325 40 ft 0 kts
2026-04-16 14:29 22.57246 120.34325 40 ft 1 kts
2026-04-16 14:30 22.57268 120.34325 42 ft 5 kts
2026-04-16 14:30 22.57318 120.34326 44 ft 9 kts
2026-04-16 14:30 22.57384 120.34318 44 ft 9 kts 328°
2026-04-16 14:30 22.57403 120.34252 44 ft 11 kts 274°
2026-04-16 14:31 22.57406 120.34193 44 ft 13 kts 271°
2026-04-16 14:31 22.57420 120.34132 43 ft 4 kts 318°
2026-04-16 14:31 22.57457 120.34122 44 ft 7 kts 358°
2026-04-16 14:31 22.57540 120.34125 44 ft 10 kts 13°
2026-04-16 14:32 22.57565 120.34162 44 ft 10 kts 80°
2026-04-16 14:32 22.57563 120.34248 44 ft 13 kts 91°
2026-04-16 14:32 22.57561 120.34357 44 ft 16 kts 92°
2026-04-16 14:32 22.57556 120.34490 45 ft 19 kts 92°
2026-04-16 14:33 22.57551 120.34644 44 ft 22 kts 92°
2026-04-16 14:33 22.57545 120.34820 44 ft 24 kts 91°
2026-04-16 14:33 22.57539 120.35012 44 ft 27 kts 92°
2026-04-16 14:33 22.57534 120.35221 44 ft 29 kts 91°
2026-04-16 14:34 22.57526 120.35445 44 ft 30 kts 92°
2026-04-16 14:34 22.57519 120.35678 44 ft 32 kts 92°
2026-04-16 14:34 22.57511 120.35926 44 ft 34 kts 92°
2026-04-16 14:34 22.57503 120.36180 44 ft 35 kts 91°
2026-04-16 14:35 22.57500 120.36374 44 ft 13 kts 79°
2026-04-16 14:35 22.57541 120.36408 45 ft 0 kts
2026-04-16 14:36 22.57542 120.36408 45 ft 1 kts
2026-04-16 14:36 22.57561 120.36411 45 ft 5 kts
2026-04-16 14:36 22.57610 120.36414 45 ft 9 kts
2026-04-16 14:36 22.57662 120.36382 46 ft 10 kts 288°
2026-04-16 14:37 22.57664 120.36357 46 ft 0 kts 274°
2026-04-16 14:37 22.57667 120.36298 46 ft 33 kts 272°
2026-04-16 14:37 22.57684 120.35737 45 ft 113 kts 272°
2026-04-16 14:37 22.57717 120.34639 114 ft 171 kts 272°
2026-04-16 14:38 22.57755 120.33372 991 ft 169 kts 272°
2026-04-16 14:38 22.57800 120.32064 1571 ft 187 kts 272°
2026-04-16 14:38 22.57840 120.30542 1807 ft 216 kts 271°
2026-04-16 14:38 22.57863 120.28821 2148 ft 241 kts 270°
2026-04-16 14:39 22.57864 120.26914 2525 ft 262 kts 270°
2026-04-16 14:39 22.57943 120.24938 3200 ft 271 kts 277°
2026-04-16 14:39 22.58383 120.22937 3916 ft 277 kts 289°
2026-04-16 14:39 22.59202 120.21038 4670 ft 281 kts 301°
2026-04-16 14:40 22.60429 120.19398 5504 ft 282 kts 316°
2026-04-16 14:40 22.62017 120.18154 6341 ft 282 kts 331°
2026-04-16 14:40 22.63854 120.17397 7189 ft 282 kts 346°
2026-04-16 14:40 22.65800 120.17177 8030 ft 282 kts
2026-04-16 14:41 22.67752 120.17494 8766 ft 288 kts 15°
2026-04-16 14:41 22.69613 120.18337 9467 ft 293 kts 29°
2026-04-16 14:41 22.71270 120.19644 10193 ft 297 kts 41°
2026-04-16 14:41 22.72884 120.21072 10771 ft 306 kts 34°
2026-04-16 14:42 22.74805 120.22156 11165 ft 320 kts 17°
2026-04-16 14:42 22.77064 120.22466 11484 ft 335 kts
2026-04-16 14:42 22.79437 120.22472 11875 ft 347 kts 360°
2026-04-16 14:42 22.81850 120.22508 12436 ft 353 kts
2026-04-16 14:43 22.84318 120.22589 13025 ft 357 kts
2026-04-16 14:43 22.86844 120.22699 13627 ft 361 kts
2026-04-16 14:43 22.89331 120.22823 14212 ft 364 kts
2026-04-16 14:43 22.91872 120.22958 14800 ft 367 kts
2026-04-16 14:44 22.94435 120.23098 15379 ft 370 kts
2026-04-16 14:44 22.97018 120.23241 15951 ft 373 kts
2026-04-16 14:44 22.99621 120.23387 16506 ft 377 kts
2026-04-16 14:44 23.02257 120.23536 17061 ft 380 kts
2026-04-16 14:45 23.04907 120.23685 17598 ft 383 kts
2026-04-16 14:45 23.07583 120.23837 18125 ft 386 kts
2026-04-16 14:45 23.10272 120.23989 18642 ft 389 kts
2026-04-16 14:45 23.12992 120.24143 19151 ft 392 kts
2026-04-16 14:46 23.15691 120.24297 19639 ft 395 kts
2026-04-16 14:46 23.18447 120.24453 20112 ft 398 kts
2026-04-16 14:46 23.21227 120.24611 20595 ft 401 kts
2026-04-16 14:46 23.24018 120.24769 21053 ft 403 kts
2026-04-16 14:47 23.26834 120.24929 21502 ft 406 kts
2026-04-16 14:47 23.29669 120.25091 21881 ft 409 kts
2026-04-16 14:47 23.32510 120.25252 21995 ft 406 kts
2026-04-16 14:47 23.35328 120.25413 22002 ft 405 kts
2026-04-16 14:48 23.38140 120.25573 22002 ft 405 kts
2026-04-16 14:48 23.40955 120.25733 22001 ft 405 kts
2026-04-16 14:48 23.43769 120.25894 22001 ft 405 kts
2026-04-16 14:48 23.46588 120.26054 22001 ft 405 kts
2026-04-16 14:49 23.49400 120.26215 22001 ft 405 kts
2026-04-16 14:49 23.52216 120.26375 21998 ft 405 kts
2026-04-16 14:49 23.55035 120.26536 22000 ft 405 kts
2026-04-16 14:49 23.57847 120.26697 22001 ft 405 kts
2026-04-16 14:50 23.60660 120.26858 21998 ft 405 kts
2026-04-16 14:50 23.63478 120.27019 21999 ft 405 kts
2026-04-16 14:50 23.66298 120.27180 22001 ft 405 kts
2026-04-16 14:50 23.69081 120.27354 21999 ft 405 kts
2026-04-16 14:51 23.71856 120.27897 22001 ft 405 kts 15°
2026-04-16 14:51 23.74550 120.28785 22000 ft 405 kts 17°
2026-04-16 14:51 23.77239 120.29728 22001 ft 406 kts 18°
2026-04-16 14:51 23.79933 120.30672 22000 ft 406 kts 17°
2026-04-16 14:53 23.98255 120.37033 21900 ft 416 kts 17°
2026-04-16 14:53 24.01059 120.38005 21797 ft 426 kts 17°
2026-04-16 14:54 24.03890 120.38988 21554 ft 426 kts 17°
2026-04-16 14:54 24.06712 120.39968 21308 ft 425 kts 17°
2026-04-16 14:54 24.09536 120.40949 21050 ft 424 kts 17°
2026-04-16 14:54 24.12354 120.41928 20794 ft 422 kts 17°
2026-04-16 14:55 24.15148 120.42900 20543 ft 421 kts 17°
2026-04-16 14:55 24.17917 120.43863 20089 ft 414 kts 17°
2026-04-16 14:55 24.20619 120.44803 19548 ft 411 kts 17°
2026-04-16 14:55 24.23334 120.45749 18965 ft 408 kts 17°
2026-04-16 14:56 24.26063 120.46699 18390 ft 405 kts 17°
2026-04-16 14:56 24.28735 120.47631 17817 ft 402 kts 17°
2026-04-16 14:56 24.31390 120.48556 17231 ft 398 kts 17°
2026-04-16 14:56 24.34024 120.49475 16676 ft 395 kts 17°
2026-04-16 14:57 24.36628 120.50384 16113 ft 391 kts 17°
2026-04-16 14:57 24.39214 120.51286 15540 ft 388 kts 17°
2026-04-16 14:57 24.41775 120.52181 14981 ft 385 kts 17°
2026-04-16 14:57 24.44310 120.53066 14423 ft 381 kts 17°
2026-04-16 14:58 24.46830 120.53947 13867 ft 378 kts 17°
2026-04-16 14:58 24.51772 120.55676 12753 ft 372 kts 17°
2026-04-16 14:58 24.54228 120.56536 12233 ft 368 kts 17°
2026-04-16 14:59 24.56660 120.57387 11686 ft 366 kts 17°
2026-04-16 14:59 24.59070 120.58231 11192 ft 362 kts 17°
2026-04-16 14:59 24.61416 120.59054 11045 ft 346 kts 17°
2026-04-16 14:59 24.63660 120.59841 10910 ft 330 kts 17°
2026-04-16 15:00 24.65799 120.60595 10778 ft 316 kts 18°
2026-04-16 15:00 24.67753 120.61576 10631 ft 303 kts 34°
2026-04-16 15:00 24.69363 120.62999 10511 ft 291 kts 41°
2026-04-16 15:00 24.70851 120.64477 10292 ft 286 kts 42°
2026-04-16 15:01 24.72320 120.65939 9975 ft 285 kts 41°
2026-04-16 15:01 24.73795 120.67399 9660 ft 287 kts 41°
2026-04-16 15:01 24.75288 120.68874 9340 ft 288 kts 41°
2026-04-16 15:01 24.76779 120.70343 9028 ft 287 kts 41°
2026-04-16 15:02 24.78264 120.71806 8701 ft 286 kts 41°
2026-04-16 15:02 24.79742 120.73261 8386 ft 284 kts 41°
2026-04-16 15:02 24.81210 120.74707 8072 ft 283 kts 41°
2026-04-16 15:02 24.82675 120.76149 7753 ft 282 kts 41°
2026-04-16 15:03 24.84119 120.77571 7450 ft 280 kts 41°
2026-04-16 15:03 24.85568 120.79000 7126 ft 279 kts 41°
2026-04-16 15:03 24.87011 120.80421 6824 ft 278 kts 41°
2026-04-16 15:03 24.88448 120.81839 6515 ft 277 kts 41°
2026-04-16 15:04 24.89877 120.83249 6206 ft 275 kts 41°
2026-04-16 15:04 24.91173 120.84796 5900 ft 275 kts 56°
2026-04-16 15:04 24.91817 120.86754 5600 ft 273 kts 84°
2026-04-16 15:04 24.91810 120.88821 5376 ft 266 kts 94°
2026-04-16 15:05 24.91686 120.90815 5241 ft 255 kts 94°
2026-04-16 15:05 24.91568 120.92724 5106 ft 245 kts 94°
2026-04-16 15:05 24.91464 120.94556 4971 ft 235 kts 93°
2026-04-16 15:05 24.91368 120.96324 4838 ft 227 kts 93°
2026-04-16 15:06 24.91278 120.98027 4690 ft 219 kts 93°
2026-04-16 15:06 24.91192 120.99692 4486 ft 216 kts 93°
2026-04-16 15:06 24.91109 121.01317 4261 ft 216 kts 93°
2026-04-16 15:06 24.91246 121.02946 4073 ft 215 kts 70°
2026-04-16 15:07 24.91967 121.04372 3970 ft 214 kts 52°
2026-04-16 15:07 24.92936 121.05619 3727 ft 214 kts 47°
2026-04-16 15:07 24.93907 121.06827 3573 ft 205 kts 48°
2026-04-16 15:07 24.94812 121.07978 3475 ft 194 kts 49°
2026-04-16 15:08 24.95680 121.09103 3245 ft 191 kts 49°
2026-04-16 15:08 24.96540 121.10202 2990 ft 188 kts 49°
2026-04-16 15:08 24.97393 121.11283 2737 ft 185 kts 49°
2026-04-16 15:08 24.98229 121.12347 2479 ft 183 kts 49°
2026-04-16 15:09 24.99045 121.13387 2225 ft 175 kts 49°
2026-04-16 15:09 24.99818 121.14372 1997 ft 164 kts 49°
2026-04-16 15:09 25.00538 121.15289 1783 ft 153 kts 49°
2026-04-16 15:09 25.01208 121.16142 1587 ft 142 kts 49°
2026-04-16 15:10 25.01843 121.16951 1416 ft 138 kts 49°
2026-04-16 15:10 25.02473 121.17753 1232 ft 138 kts 49°
2026-04-16 15:10 25.03104 121.18557 1047 ft 138 kts 49°
2026-04-16 15:10 25.03725 121.19349 849 ft 138 kts 49°
2026-04-16 15:11 25.04355 121.20151 660 ft 138 kts 49°
2026-04-16 15:11 25.04985 121.20958 454 ft 136 kts 49°
2026-04-16 15:11 25.05607 121.21745 267 ft 137 kts 48°
2026-04-16 15:11 25.06216 121.22528 128 ft 137 kts 50°
2026-04-16 15:12 25.06808 121.23273 104 ft 106 kts 49°
2026-04-16 15:12 25.07182 121.23746 101 ft 59 kts 49°
2026-04-16 15:12 25.07354 121.23964 100 ft 26 kts 49°
2026-04-16 15:12 25.07480 121.24119 100 ft 27 kts 41°
2026-04-16 15:13 25.07633 121.24206 105 ft 15 kts 19°
2026-04-16 15:13 25.07666 121.24218 103 ft 0 kts 18°
2026-04-16 15:13 25.07668 121.24219 103 ft 1 kts 18°
2026-04-16 15:13 25.07686 121.24225 105 ft 4 kts 18°
2026-04-16 15:14 25.07719 121.24237 104 ft 6 kts 19°
2026-04-16 15:14 25.07769 121.24257 105 ft 9 kts 19°
2026-04-16 15:14 25.07837 121.24282 105 ft 12 kts 19°
2026-04-16 15:14 25.07904 121.24343 106 ft 14 kts 48°
2026-04-16 15:15 25.07976 121.24435 105 ft 17 kts 50°
2026-04-16 15:15 25.08026 121.24472 106 ft 2 kts 357°
2026-04-16 15:15 25.08048 121.24463 106 ft 5 kts 333°
2026-04-16 15:15 25.08088 121.24428 106 ft 9 kts 321°
2026-04-16 15:16 25.08143 121.24376 106 ft 12 kts 318°
2026-04-16 15:16 25.08211 121.24309 107 ft 14 kts 321°
2026-04-16 15:16 25.08266 121.24260 107 ft 16 kts 320°
2026-04-16 15:16 25.08358 121.24173 107 ft 19 kts 319°
2026-04-16 15:17 25.08464 121.24072 107 ft 21 kts 319°
2026-04-16 15:17 25.08583 121.23959 107 ft 23 kts 319°
2026-04-16 15:17 25.08667 121.23879 107 ft 9 kts 311°
2026-04-16 15:17 25.08655 121.23830 107 ft 7 kts 233°
2026-04-16 15:18 25.08632 121.23798 107 ft 9 kts 230°
2026-04-16 15:18 25.08585 121.23738 107 ft 12 kts 230°
2026-04-16 15:18 25.08525 121.23661 107 ft 15 kts 229°
2026-04-16 15:18 25.08450 121.23566 107 ft 18 kts 229°
2026-04-16 15:19 25.08366 121.23456 107 ft 18 kts 230°
2026-04-16 15:19 25.08298 121.23370 107 ft 15 kts 229°
2026-04-16 15:19 25.08224 121.23278 107 ft 17 kts 229°
2026-04-16 15:19 25.08142 121.23171 107 ft 19 kts 229°
2026-04-16 15:20 25.08047 121.23050 105 ft 22 kts 229°
2026-04-16 15:20 25.07970 121.22951 107 ft 13 kts 229°
2026-04-16 15:20 25.07911 121.22874 107 ft 9 kts 230°
2026-04-16 15:20 25.07870 121.22864 107 ft 7 kts 166°
2026-04-16 15:21 25.07826 121.22900 107 ft 9 kts 139°
2026-04-16 15:21 25.07808 121.22916 107 ft 0 kts 139°